WTB27M LOWI-EDDS

Flight info

Callsign WTB27M
Flight time 0h 30m
Altitude 22000
Route KOGOL M726 MAH L173 DODIL T127 TEKSI TEKSI1W
Aircraft A319/M-SDE3FGHIRWY/LB1

Departure

Time 2026-05-07 18:32
Airport Innsbruck Airport (LOWI)

Arrival

Time 2026-05-07 19:02
Airport Stuttgart Airport (EDDS)
Time Latitude Longitude Altitude Speed Heading
2026-05-07 18:18 47.25833 11.35178 1904 ft 0 kts 169°
2026-05-07 18:25 47.25835 11.35178 1904 ft 2 kts 169°
2026-05-07 18:25 47.25851 11.35173 1901 ft 2 kts 168°
2026-05-07 18:25 47.25867 11.35168 1891 ft 2 kts 180°
2026-05-07 18:25 47.25883 11.35172 1893 ft 2 kts 218°
2026-05-07 18:26 47.25894 11.35188 1893 ft 1 kts 259°
2026-05-07 18:26 47.25894 11.35191 1894 ft 0 kts 261°
2026-05-07 18:27 47.25894 11.35189 1893 ft 2 kts 261°
2026-05-07 18:27 47.25890 11.35153 1895 ft 5 kts 261°
2026-05-07 18:28 47.25883 11.35086 1904 ft 8 kts 261°
2026-05-07 18:28 47.25871 11.34976 1904 ft 15 kts 261°
2026-05-07 18:28 47.25851 11.34796 1893 ft 17 kts 261°
2026-05-07 18:28 47.25833 11.34636 1897 ft 14 kts 261°
2026-05-07 18:29 47.25819 11.34503 1895 ft 13 kts 261°
2026-05-07 18:29 47.25803 11.34363 1898 ft 14 kts 261°
2026-05-07 18:29 47.25789 11.34229 1899 ft 12 kts 261°
2026-05-07 18:29 47.25773 11.34084 1904 ft 16 kts 262°
2026-05-07 18:30 47.25801 11.33901 1896 ft 19 kts 300°
2026-05-07 18:30 47.25871 11.33755 1894 ft 16 kts 305°
2026-05-07 18:30 47.25925 11.33626 1896 ft 13 kts 282°
2026-05-07 18:30 47.25919 11.33470 1897 ft 19 kts 261°
2026-05-07 18:31 47.25896 11.33249 1904 ft 19 kts 255°
2026-05-07 18:31 47.25845 11.33186 1901 ft 8 kts 252°
2026-05-07 18:31 47.25837 11.33104 1904 ft 10 kts 275°
2026-05-07 18:31 47.25881 11.33105 1897 ft 7 kts 67°
2026-05-07 18:32 47.25891 11.33194 1901 ft 20 kts 81°
2026-05-07 18:32 47.25962 11.33833 1904 ft 104 kts 81°
2026-05-07 18:32 47.26104 11.35208 1982 ft 157 kts 81°
2026-05-07 18:32 47.26271 11.36736 2687 ft 150 kts 81°
2026-05-07 18:33 47.26423 11.38232 3344 ft 150 kts 81°
2026-05-07 18:33 47.26578 11.39766 3858 ft 155 kts 81°
2026-05-07 18:33 47.26747 11.41448 4019 ft 180 kts 81°
2026-05-07 18:33 47.26945 11.43407 4288 ft 202 kts 82°
2026-05-07 18:34 47.27321 11.45424 4870 ft 207 kts 69°
2026-05-07 18:34 47.27841 11.47417 5562 ft 210 kts 68°
2026-05-07 18:34 47.28403 11.49432 6185 ft 215 kts 67°
2026-05-07 18:34 47.28987 11.51476 6816 ft 218 kts 66°
2026-05-07 18:35 47.29582 11.53556 7415 ft 222 kts 67°
2026-05-07 18:35 47.30185 11.55671 8002 ft 226 kts 67°
2026-05-07 18:35 47.30800 11.57830 8577 ft 231 kts 66°
2026-05-07 18:35 47.31425 11.60029 9190 ft 234 kts 66°
2026-05-07 18:36 47.32061 11.62251 9842 ft 237 kts 66°
2026-05-07 18:36 47.32713 11.64492 10398 ft 240 kts 65°
2026-05-07 18:36 47.33700 11.66549 10668 ft 255 kts 39°
2026-05-07 18:36 47.35331 11.67705 10998 ft 268 kts
2026-05-07 18:37 47.37219 11.67469 11313 ft 284 kts 336°
2026-05-07 18:37 47.38957 11.65888 11556 ft 306 kts 322°
2026-05-07 18:37 47.40729 11.63941 11800 ft 329 kts 321°
2026-05-07 18:37 47.42607 11.61822 12180 ft 346 kts 321°
2026-05-07 18:38 47.44537 11.59641 12901 ft 352 kts 321°
2026-05-07 18:38 47.46496 11.57439 13648 ft 356 kts 321°
2026-05-07 18:38 47.48482 11.55225 14321 ft 360 kts 321°
2026-05-07 18:38 47.50494 11.52996 14998 ft 363 kts 321°
2026-05-07 18:39 47.52495 11.50782 15647 ft 365 kts 321°
2026-05-07 18:39 47.54539 11.48520 16304 ft 368 kts 321°
2026-05-07 18:39 47.56595 11.46243 16951 ft 371 kts 321°
2026-05-07 18:39 47.58678 11.43930 17615 ft 375 kts 321°
2026-05-07 18:40 47.60792 11.41642 18269 ft 378 kts 321°
2026-05-07 18:40 47.62877 11.39236 18848 ft 381 kts 319°
2026-05-07 18:40 47.64932 11.36731 19383 ft 385 kts 318°
2026-05-07 18:40 47.67003 11.34186 19957 ft 388 kts 318°
2026-05-07 18:41 47.69082 11.31607 20559 ft 390 kts 318°
2026-05-07 18:41 47.71162 11.29009 21101 ft 393 kts 318°
2026-05-07 18:41 47.73262 11.26398 21631 ft 396 kts 318°
2026-05-07 18:41 47.75387 11.23779 21975 ft 398 kts 319°
2026-05-07 18:42 47.77541 11.21143 22045 ft 407 kts 319°
2026-05-07 18:42 47.79750 11.18450 22049 ft 413 kts 319°
2026-05-07 18:42 47.81981 11.15734 22054 ft 415 kts 319°
2026-05-07 18:42 47.84215 11.13014 22054 ft 415 kts 319°
2026-05-07 18:43 47.86451 11.10280 22055 ft 415 kts 319°
2026-05-07 18:43 47.88680 11.07548 22055 ft 416 kts 319°
2026-05-07 18:43 47.90915 11.04805 22064 ft 416 kts 319°
2026-05-07 18:43 47.93146 11.02063 22054 ft 416 kts 319°
2026-05-07 18:44 47.95375 10.99321 22055 ft 416 kts 319°
2026-05-07 18:44 47.97606 10.96574 22055 ft 416 kts 319°
2026-05-07 18:44 47.99834 10.93826 22054 ft 415 kts 319°
2026-05-07 18:44 48.02058 10.91075 22052 ft 415 kts 319°
2026-05-07 18:45 48.04284 10.88321 22050 ft 415 kts 319°
2026-05-07 18:45 48.06506 10.85573 22051 ft 415 kts 319°
2026-05-07 18:45 48.08728 10.82820 22044 ft 415 kts 319°
2026-05-07 18:45 48.10950 10.80065 22040 ft 415 kts 319°
2026-05-07 18:46 48.13167 10.77313 22044 ft 415 kts 319°
2026-05-07 18:46 48.15388 10.74551 22053 ft 412 kts 318°
2026-05-07 18:46 48.17557 10.71847 21639 ft 402 kts 318°
2026-05-07 18:46 48.19696 10.69179 21041 ft 399 kts 318°
2026-05-07 18:47 48.21820 10.66528 20462 ft 396 kts 318°
2026-05-07 18:47 48.23932 10.63892 19966 ft 394 kts 318°
2026-05-07 18:47 48.26037 10.61266 19499 ft 393 kts 318°
2026-05-07 18:47 48.28129 10.58649 19041 ft 391 kts 318°
2026-05-07 18:48 48.30208 10.56039 18587 ft 389 kts 318°
2026-05-07 18:48 48.32279 10.53436 18112 ft 387 kts 318°
2026-05-07 18:48 48.34335 10.50851 17561 ft 384 kts 318°
2026-05-07 18:48 48.36358 10.48314 16804 ft 386 kts 318°
2026-05-07 18:49 48.38443 10.45699 16056 ft 391 kts 318°
2026-05-07 18:49 48.40511 10.43098 15579 ft 384 kts 318°
2026-05-07 18:49 48.42537 10.40545 15065 ft 377 kts 317°
2026-05-07 18:49 48.44532 10.38029 14552 ft 371 kts 318°
2026-05-07 18:50 48.46494 10.35552 14036 ft 365 kts 318°
2026-05-07 18:50 48.48435 10.33094 13466 ft 363 kts 318°
2026-05-07 18:50 48.50355 10.30659 12934 ft 359 kts 317°
2026-05-07 18:50 48.52254 10.28249 12395 ft 355 kts 317°
2026-05-07 18:51 48.54133 10.25859 11859 ft 351 kts 317°
2026-05-07 18:51 48.55986 10.23499 11316 ft 347 kts 317°
2026-05-07 18:51 48.57822 10.21160 10881 ft 342 kts 317°
2026-05-07 18:51 48.59600 10.18901 10756 ft 326 kts 317°
2026-05-07 18:52 48.61302 10.16735 10630 ft 313 kts 317°
2026-05-07 18:52 48.62933 10.14655 10498 ft 300 kts 316°
2026-05-07 18:52 48.64482 10.12668 10360 ft 285 kts 314°
2026-05-07 18:52 48.65641 10.10333 10070 ft 275 kts 296°
2026-05-07 18:53 48.66517 10.07790 9747 ft 272 kts 294°
2026-05-07 18:53 48.67365 10.05239 9367 ft 271 kts 294°
2026-05-07 18:53 48.68203 10.02689 8948 ft 271 kts 294°
2026-05-07 18:53 48.69035 10.00126 8547 ft 271 kts 294°
2026-05-07 18:54 48.69861 9.97568 8166 ft 270 kts 294°
2026-05-07 18:54 48.70678 9.95021 8051 ft 268 kts 294°
2026-05-07 18:54 48.71481 9.92506 8063 ft 270 kts 294°
2026-05-07 18:54 48.72201 9.89888 8042 ft 268 kts 286°
2026-05-07 18:55 48.72722 9.87193 7681 ft 266 kts 284°
2026-05-07 18:55 48.73212 9.84499 7268 ft 265 kts 284°
2026-05-07 18:55 48.73685 9.81811 6896 ft 264 kts 282°
2026-05-07 18:55 48.73922 9.79066 6533 ft 262 kts 275°
2026-05-07 18:56 48.74068 9.76332 6147 ft 261 kts 274°
2026-05-07 18:56 48.74201 9.73600 6063 ft 260 kts 274°
2026-05-07 18:56 48.74330 9.70862 5895 ft 259 kts 274°
2026-05-07 18:56 48.74455 9.68142 5467 ft 259 kts 274°
2026-05-07 18:57 48.74572 9.65419 5138 ft 255 kts 274°
2026-05-07 18:57 48.74679 9.62800 5013 ft 243 kts 274°
2026-05-07 18:57 48.74778 9.60295 4885 ft 233 kts 274°
2026-05-07 18:57 48.74869 9.57911 4755 ft 223 kts 274°
2026-05-07 18:58 48.74956 9.55596 4516 ft 218 kts 274°
2026-05-07 18:58 48.74823 9.53320 4207 ft 218 kts 257°
2026-05-07 18:58 48.74428 9.51120 4037 ft 216 kts 255°
2026-05-07 18:58 48.74012 9.48932 4025 ft 217 kts 255°
2026-05-07 18:59 48.73596 9.46717 4026 ft 219 kts 256°
2026-05-07 18:59 48.73322 9.45247 3963 ft 219 kts 256°
2026-05-07 18:59 48.72911 9.43051 3740 ft 216 kts 256°
2026-05-07 18:59 48.72370 9.40163 3380 ft 215 kts 255°
2026-05-07 19:00 48.71967 9.38013 3093 ft 209 kts 256°
2026-05-07 19:00 48.71577 9.35940 2806 ft 200 kts 255°
2026-05-07 19:00 48.71205 9.33957 2522 ft 193 kts 255°
2026-05-07 19:00 48.70846 9.32050 2267 ft 183 kts 255°
2026-05-07 19:01 48.70508 9.30256 2033 ft 169 kts 255°
2026-05-07 19:01 48.70209 9.28671 1795 ft 153 kts 255°
2026-05-07 19:01 48.70019 9.27666 1669 ft 147 kts 255°
2026-05-07 19:01 48.69742 9.26186 1474 ft 143 kts 255°
2026-05-07 19:02 48.69478 9.24825 1312 ft 142 kts 255°
2026-05-07 19:02 48.69215 9.23422 1211 ft 127 kts 255°
2026-05-07 19:02 48.69047 9.22499 1227 ft 59 kts 254°
2026-05-07 19:02 48.68953 9.22009 1244 ft 34 kts 254°
2026-05-07 19:03 48.68938 9.21742 1247 ft 23 kts 280°
2026-05-07 19:03 48.68976 9.21519 1262 ft 20 kts 285°
2026-05-07 19:03 48.68995 9.21328 1265 ft 17 kts 264°
2026-05-07 19:03 48.68966 9.21164 1264 ft 15 kts 255°
2026-05-07 19:04 48.68937 9.21013 1268 ft 16 kts 255°
2026-05-07 19:04 48.68900 9.20809 1272 ft 23 kts 254°
2026-05-07 19:04 48.68855 9.20576 1279 ft 22 kts 253°
2026-05-07 19:04 48.68814 9.20358 1285 ft 21 kts 254°
2026-05-07 19:05 48.68778 9.20167 1287 ft 13 kts 253°
2026-05-07 19:05 48.68762 9.20084 1289 ft 2 kts 253°
2026-05-07 19:05 48.68762 9.20083 1289 ft 0 kts 253°
2026-05-07 19:06 48.68785 9.19964 1294 ft 12 kts 314°
2026-05-07 19:06 48.68845 9.19892 1299 ft 9 kts 342°
2026-05-07 19:07 48.68906 9.19878 1303 ft 10 kts 15°
2026-05-07 19:07 48.68963 9.19988 1303 ft 16 kts 57°
2026-05-07 19:07 48.69006 9.20116 1301 ft 11 kts 83°
2026-05-07 19:07 48.68973 9.20136 1298 ft 6 kts 164°
2026-05-07 19:08 48.68932 9.20154 1296 ft 0 kts 164°